Regional Weather Roundup
Issued by NWS Sterling, VA

Home | Current Version | Previous Version | Graphics & Text | Print | Product List | Glossary On
Versions: 1 2 3 4 5 6 7 8 9 10 11 12 13 14 15 16 17 18 19 20 21 22 23 24 25 26 27
000
ASUS41 KLWX 232011
RWRLWX

REGIONAL WEATHER ROUNDUP
NATIONAL WEATHER SERVICE BALTIMORE MD/WASHINGTON DC
400 PM EDT MON APR 23 2018

Note: "FAIR" indicates few or no clouds below 12,000 feet
with no significant weather and/or obstructions to visibility.
 TC=TEMPERATURE CELSIUS

 * =Non NWS site. Station does not report precipitation (e.g. rain,
    snow, etc.), thunder, or fog.

DCZ001-MDZ009-015-VAZ040>042-051-053>054-232100-
WASHINGTON METRO

CITY           SKY/WX    TMP DP  RH WIND       PRES   REMARKS
WASHINGTON NAT PTSUNNY   67  44  43 SE17      30.36F
DULLES         PTSUNNY   69  43  38 SE10G22   30.34F
QUANTICO       PTSUNNY   67  49  52 SE15G25   30.36F
LEESBURG*      CLOUDY    70  45  40 S13G18    30.34F
MANASSAS*      PTSUNNY   68  44  42 SE16      30.34F
GAITHERSBURG*  PTSUNNY   68  45  43 SE13G20   30.35F

$$

MDZ006>007-011-014-232100-
BALTIMORE METRO

CITY           SKY/WX    TMP DP  RH WIND       PRES   REMARKS
BWI AIRPORT    PTSUNNY   67  43  41 SE13      30.37F
MD SCIENCE CTR   N/A     70  42  36 MISG      30.38F
ANNAPOLIS      FAIR      66  49  54 S14       30.38F
FORT MEADE*    FAIR      68  43  40 SE12G20   30.39F

$$

MDZ012-015-019>023-232100-
MARYLAND EASTERN SHORE

CITY           SKY/WX    TMP DP  RH WIND       PRES   REMARKS
OCEAN CITY     FAIR      56  43  61 VRB6      30.45F
SALISBURY      FAIR      65  27  23 SE15      30.42F
BAY BRIDGE AP* FAIR      66  48  52 SW13      30.39F
CAMBRIDGE*     SUNNY     68  36  30 SE16      30.39F
EASTON*        PTSUNNY   68  39  34 S7        30.42F

$$

MDZ017>025-232100-
SOUTHERN MARYLAND

CITY           SKY/WX    TMP DP  RH WIND       PRES   REMARKS
PATUXENT RIVER PTSUNNY   64  43  46 SE15G22   30.39F
ST INIGOES     FAIR      64  35  34 SE14G24   30.39F
LEONARDTOWN*   FAIR      64  37  36 SE10G18   30.40F

$$

MDZ003>005-232100-
NORTH CENTRAL MARYLAND

CITY           SKY/WX    TMP DP  RH WIND       PRES   REMARKS
FREDERICK*     PTSUNNY   68  39  34 S14       30.37F
HAGERSTOWN APT FAIR      69  40  34 SE15      30.32F
WESTMINSTER*   FAIR     N/A N/A N/A SE10G21   30.36F

$$

MDZ501>502-232100-
WESTERN MARYLAND

CITY           SKY/WX    TMP DP  RH WIND       PRES   REMARKS
OAKLAND*       FAIR      57  32  38 SE22G28   30.27S
CUMBERLAND*    FAIR      72  37  28 SE17G25   30.31F

$$

VAZ025>031-232100-
SHENANDOAH VALLEY

CITY           SKY/WX    TMP DP  RH WIND       PRES   REMARKS
WINCHESTER*    CLOUDY    64  43  45 SE12      30.33F
FRONT ROYAL*   CLOUDY    64  43  45 SE8       30.30F
LURAY*         CLOUDY    64  43  45 SE10G20   30.31F
NEW MARKET*    PTSUNNY   65  45  48 SE9G16    30.29F
STAUNTON*      PTSUNNY   63  43  48 SE9G16    30.31F
WAYNESBORO*    PTSUNNY   62  42  49 SE13G24   30.30F

$$

WVZ021-048>050-054>055-232100-
EASTERN WEST VIRGINIA PANHANDLE

CITY           SKY/WX    TMP DP  RH WIND       PRES   REMARKS
MARTINSBURG    PTSUNNY   67  42  40 SE10G21   30.31F
PETERSBURG*    FAIR      64  42  44 SE17G23   30.28F

$$

VAZ036>039-050-232100-
CENTRAL FOOTHILLS

CITY           SKY/WX    TMP DP  RH WIND       PRES   REMARKS
CHARLOTTESVILL FAIR      69  42  37 SE16G23   30.29F
CULPEPER*      CLOUDY    68  43  40 SE8       30.32F
ORANGE*        CLOUDY    64  45  48 SE8G16    30.31F
GORDONSVILLE*  CLOUDY    66  45  46 SE9       30.30F
WARRENTON*     CLOUDY    68  41  36 E12       30.32F

$$

VAZ055>057-232100-
NORTH AND CENTRAL PIEDMONT

CITY           SKY/WX    TMP DP  RH WIND       PRES   REMARKS
FREDERICKSBRG* CLOUDY    67  46  46 E12G17    30.33F
STAFFORD*      CLOUDY    66  46  46 E15       30.37F

$$

NCZ024-NYZ072-PAZ021-071-VAZ022-071-232100-
OTHER REGIONAL OBSERVATIONS

CITY           SKY/WX    TMP DP  RH WIND       PRES   REMARKS
NEW YORK CITY  FAIR      62  28  27 S9        30.46S
PHILADELPHIA   FAIR      68  29  23 W14G20    30.41S
PITTSBURGH     PTSUNNY   71  34  25 S13G21    30.19F
ROANOKE        CLOUDY    61  45  55 SE12      30.29F
RICHMOND       CLOUDY    67  44  43 SE17      30.33F
RALEIGH        LGT RAIN  63  53  70 VRB6      30.26F

$$

ANZ530>537-232100-
MARINE OBSERVATIONS

STATION/POSITION TIME  TEMP    WIND        PRES
                       AIR SEA DIR/SP/G
                 (UTC) (F)     (DEG/KT/KT) (MB)
THOMAS PT LIGHT  2000   58 54  190/ 10/ 12 1029.8
BALT KEY BRIDGE  1948   63     120/  9/ 11 1028.8F
COVE POINT       1948   57     180/ 15/ 17 1029.8F
LEWISETTA        1948   58 58  120/ 17/ 20 1028.9F
SOLOMONS ISLAND  1948   59 55  140/ 16/ 19 1028.9F
PINEY POINT      1948          150/ 17/ 18   N/A

$$





USA.gov is the U.S. government's official web portal to all federal, state and local government web resources and services.